Findlay, OH

9:15 PM EDT on April 25, 2018 (GMT -0400)
Findlay

Weather History for KFDY - December, 2013

Change the Weather History Date:

Tuesday, December 24, 2013

  Actual Average Record
Temperature  
Mean Temperature 16 °F -  
Max Temperature 21 °F 32 °F 61 °F (1964)
Min Temperature 10 °F 18 °F -15 °F (1983)
Degree Days  
Heating Degree Days 50    
Moisture  
Dew Point 8 °F    
Average Humidity 76    
Maximum Humidity 88    
Minimum Humidity 65    
Precipitation  
Precipitation 0.00 in - - ()
Sea Level Pressure  
Sea Level Pressure 30.47 in    
Wind  
Wind Speed 14 mph (West)    
Max Wind Speed 21 mph    
Max Gust Speed 26 mph    
Visibility 8 miles    
Events Snow    
Averages and records for this station are not official NWS values.
T = Trace of Precipitation, MM = Missing Value Source: NWS Daily Summary

Daily Weather History Graph

Daily Weather History Graph

Search for Another Location

Airport or City:

Astronomy

Dec. 24, 2013 Rise Set
Actual Time 7:57 AM EST 5:11 PM EST
Civil Twilight 7:26 AM EST 5:42 PM EST
Nautical Twilight 6:51 AM EST 6:17 PM EST
Astronomical Twilight 6:18 AM EST 6:50 PM EST
Moon No Moon Rise 11:48 AM EST (12/24)
Length of Visible Light 10h 16m
Length of Day
9h 13m
Waning Gibbous, 59% of the Moon is Illuminated
Dec 24
Waning Gibbous
Dec 25
Last Quarter
Jan 1
New
Jan 7
First Quarter
Jan 15
Full

Hourly Weather History & Observations

Time (EST) Temp. Windchill Dew Point Humidity Pressure Visibility Wind Dir Wind Speed Gust Speed Precip Events Conditions
12:53 AM 21.0 °F 7.6 °F 10.9 °F 65% 30.34 in 10.0 mi West 15.0 mph - N/A   Overcast
1:53 AM 18.0 °F 1.7 °F 9.0 °F 68% 30.35 in 10.0 mi West 19.6 mph - N/A   Mostly Cloudy
2:53 AM 15.1 °F -1.1 °F 8.1 °F 74% 30.38 in 10.0 mi West 17.3 mph - N/A   Partly Cloudy
3:10 AM 15.8 °F 0.3 °F 8.6 °F 73% 30.35 in 10.0 mi West 16.1 mph - N/A   Mostly Cloudy
3:53 AM 15.1 °F -1.1 °F 8.1 °F 74% 30.38 in 10.0 mi West 17.3 mph 24.2 mph 0.00 in Snow Light Snow
4:53 AM 14.0 °F -0.8 °F 7.0 °F 74% 30.38 in 8.0 mi West 13.8 mph 21.9 mph 0.00 in Snow Light Snow
5:53 AM 10.9 °F -6.5 °F 5.0 °F 77% 30.40 in 10.0 mi WNW 17.3 mph - 0.00 in   Overcast
6:53 AM 10.0 °F -9.1 °F 3.0 °F 73% 30.42 in 10.0 mi West 20.7 mph 26.5 mph N/A   Overcast
7:53 AM 10.0 °F -7.1 °F 3.0 °F 73% 30.45 in 10.0 mi West 16.1 mph 20.7 mph N/A   Overcast
8:53 AM 10.9 °F -4.1 °F 6.1 °F 81% 30.47 in 7.0 mi WNW 12.7 mph - 0.00 in Snow Light Snow
9:11 AM 10.4 °F -7.2 °F 6.8 °F 85% 30.43 in 1.8 mi West 17.3 mph - 0.00 in Snow Light Snow
9:30 AM 10.4 °F -7.2 °F 5.0 °F 79% 30.45 in 3.0 mi West 17.3 mph - 0.00 in Snow Light Snow
9:53 AM 10.9 °F -4.7 °F 5.0 °F 77% 30.49 in 2.5 mi West 13.8 mph - 0.00 in Snow Light Snow
10:03 AM 12.2 °F -4.3 °F 6.8 °F 79% 30.46 in 1.5 mi West 16.1 mph - 0.00 in Snow Light Snow
10:23 AM 12.2 °F -3.1 °F 6.8 °F 79% 30.47 in 2.5 mi West 13.8 mph - 0.00 in Snow Light Snow
10:35 AM 10.4 °F -4.8 °F 5.0 °F 79% 30.47 in 4.0 mi West 12.7 mph - 0.00 in Snow Light Snow
10:42 AM 10.4 °F -6.6 °F 5.0 °F 79% 30.48 in 5.0 mi West 16.1 mph - 0.00 in Snow Light Snow
10:53 AM 12.0 °F -4.5 °F 6.1 °F 77% 30.51 in 7.0 mi West 16.1 mph - 0.00 in Snow Light Snow
11:08 AM 12.2 °F -3.7 °F 6.8 °F 79% 30.48 in 9.0 mi West 15.0 mph - 0.00 in   Overcast
11:53 AM 12.9 °F -2.2 °F 6.1 °F 74% 30.51 in 7.0 mi West 13.8 mph - 0.00 in Snow Light Snow
12:53 PM 15.1 °F 0.5 °F 8.1 °F 74% 30.50 in 9.0 mi West 13.8 mph - 0.00 in   Mostly Cloudy
1:00 PM 15.8 °F 1.4 °F 8.6 °F 73% 30.47 in 10.0 mi WSW 13.8 mph - N/A   Mostly Cloudy
1:12 PM 15.8 °F 2.1 °F 8.6 °F 73% 30.46 in 10.0 mi WSW 12.7 mph - N/A   Scattered Clouds
1:53 PM 17.1 °F 5.0 °F 9.0 °F 71% 30.49 in 10.0 mi West 10.4 mph - N/A   Clear
2:28 PM 17.6 °F 4.3 °F 8.6 °F 68% 30.47 in 10.0 mi West 12.7 mph 18.4 mph N/A   Mostly Cloudy
2:53 PM 18.0 °F 6.9 °F 9.0 °F 68% 30.51 in 10.0 mi West 9.2 mph - N/A   Overcast
3:53 PM 18.0 °F 7.7 °F 10.0 °F 71% 30.53 in 9.0 mi West 8.1 mph - 0.00 in   Overcast
4:53 PM 18.0 °F 6.9 °F 10.0 °F 71% 30.55 in 10.0 mi West 9.2 mph - N/A   Overcast
5:53 PM 17.1 °F 6.6 °F 10.0 °F 74% 30.56 in 10.0 mi West 8.1 mph - 0.00 in   Overcast
6:14 PM 15.8 °F 8.6 °F 10.4 °F 79% 30.51 in 10.0 mi WSW 4.6 mph - N/A   Scattered Clouds
6:53 PM 16.0 °F 8.8 °F 10.0 °F 77% 30.56 in 10.0 mi SW 4.6 mph - N/A   Clear
7:53 PM 15.1 °F 9.4 °F 10.0 °F 80% 30.56 in 10.0 mi SW 3.5 mph - N/A   Clear
8:53 PM 14.0 °F 6.5 °F 10.0 °F 84% 30.55 in 10.0 mi SSW 4.6 mph - N/A   Clear
9:53 PM 14.0 °F - 10.0 °F 84% 30.54 in 10.0 mi Calm Calm - N/A   Clear
10:53 PM 12.9 °F 5.2 °F 10.0 °F 88% 30.54 in 10.0 mi SSE 4.6 mph - N/A   Clear
11:53 PM 14.0 °F 8.2 °F 10.0 °F 84% 30.52 in 10.0 mi SSE 3.5 mph - N/A   Clear